Time,TemperatureF,DewpointF,PressureIn,WindDirection,WindDirectionDegrees,WindSpeedMPH,WindSpeedGustMPH,Humidity,HourlyPrecipIn,Conditions,Clouds,dailyrainin,SoftwareType,DateUTC
2013-02-28 00:00:00,39.7,39.2,29.50,South,187,4.0,8.0,98,0.00,,,0.69,VWS V14.01,2013-02-28 05:00:00,
2013-02-28 00:05:00,39.7,39.2,29.50,SW,225,0.0,3.0,98,0.00,,,0.00,VWS V14.01,2013-02-28 05:05:00,
2013-02-28 00:10:00,39.7,39.2,29.51,SSW,213,0.0,8.0,98,0.00,,,0.00,VWS V14.01,2013-02-28 05:10:00,
2013-02-28 00:15:00,39.7,39.2,29.50,SSW,213,2.0,8.0,98,0.00,,,0.00,VWS V14.01,2013-02-28 05:15:00,
2013-02-28 00:20:00,39.7,39.2,29.50,South,191,1.0,8.0,98,0.00,,,0.00,VWS V14.01,2013-02-28 05:20:00,
2013-02-28 00:25:00,39.7,39.2,29.50,SSE,168,3.0,8.0,98,0.00,,,0.00,VWS V14.01,2013-02-28 05:25:00,
2013-02-28 00:30:00,39.6,39.1,29.50,SSE,161,1.0,8.0,98,0.00,,,0.00,VWS V14.01,2013-02-28 05:30:00,
2013-02-28 00:35:00,39.5,39.0,29.50,South,182,0.0,4.0,98,0.00,,,0.00,VWS V14.01,2013-02-28 05:35:00,
2013-02-28 00:40:00,39.5,39.0,29.50,South,182,0.0,5.0,98,0.00,,,0.00,VWS V14.01,2013-02-28 05:40:00,
2013-02-28 00:45:00,39.5,39.0,29.50,South,182,0.0,5.0,98,0.00,,,0.00,VWS V14.01,2013-02-28 05:45:00,
2013-02-28 00:50:00,39.4,38.9,29.50,WSW,247,1.0,5.0,98,0.00,,,0.00,VWS V14.01,2013-02-28 05:50:00,
2013-02-28 00:55:00,39.4,38.9,29.50,West,265,1.0,8.0,98,0.00,,,0.00,VWS V14.01,2013-02-28 05:55:00,
2013-02-28 01:00:00,39.4,38.9,29.50,WSW,242,1.0,8.0,98,0.00,,,0.00,VWS V14.01,2013-02-28 06:00:00,
2013-02-28 01:05:00,39.4,38.9,29.51,WSW,250,1.0,3.0,98,0.00,,,0.00,VWS V14.01,2013-02-28 06:05:00,
2013-02-28 01:10:00,39.5,39.0,29.51,WSW,248,2.0,3.0,98,0.00,,,0.00,VWS V14.01,2013-02-28 06:10:00,
2013-02-28 01:15:00,39.5,39.0,29.51,SW,229,2.0,4.0,98,0.00,,,0.00,VWS V14.01,2013-02-28 06:15:00,
2013-02-28 01:20:00,39.5,39.0,29.51,WSW,245,1.0,4.0,98,0.00,,,0.00,VWS V14.01,2013-02-28 06:20:00,
2013-02-28 01:25:00,39.5,39.0,29.51,WSW,245,1.0,4.0,98,0.00,,,0.00,VWS V14.01,2013-02-28 06:25:00,
2013-02-28 01:30:00,39.6,39.1,29.51,WSW,245,2.0,4.0,98,0.00,,,0.00,VWS V14.01,2013-02-28 06:30:00,
2013-02-28 01:35:00,39.8,39.3,29.51,WSW,245,0.0,4.0,98,0.00,,,0.00,VWS V14.01,2013-02-28 06:35:00,
2013-02-28 01:40:00,39.9,39.4,29.51,WSW,245,0.0,4.0,98,0.00,,,0.00,VWS V14.01,2013-02-28 06:40:00,
2013-02-28 01:45:00,39.9,39.4,29.51,WSW,245,0.0,4.0,98,0.00,,,0.00,VWS V14.01,2013-02-28 06:45:00,
2013-02-28 01:50:00,39.8,39.3,29.51,WSW,245,0.0,4.0,98,0.00,,,0.00,VWS V14.01,2013-02-28 06:50:00,
2013-02-28 01:55:00,39.7,39.2,29.51,WSW,245,0.0,4.0,98,0.00,,,0.00,VWS V14.01,2013-02-28 06:55:00,
2013-02-28 02:00:00,39.7,39.2,29.52,WSW,245,1.0,4.0,98,0.00,,,0.00,VWS V14.01,2013-02-28 07:00:00,
2013-02-28 02:05:00,39.6,39.1,29.52,WSW,245,1.0,3.0,98,0.00,,,0.00,VWS V14.01,2013-02-28 07:05:00,
2013-02-28 02:10:00,39.5,39.0,29.52,WSW,245,0.0,3.0,98,0.00,,,0.00,VWS V14.01,2013-02-28 07:10:00,
2013-02-28 02:15:00,39.4,38.9,29.52,WSW,245,0.0,3.0,98,0.00,,,0.00,VWS V14.01,2013-02-28 07:15:00,
2013-02-28 02:20:00,39.3,38.8,29.51,WSW,245,1.0,3.0,98,0.00,,,0.00,VWS V14.01,2013-02-28 07:20:00,
2013-02-28 02:25:00,39.3,38.8,29.51,WSW,245,0.0,3.0,98,0.00,,,0.00,VWS V14.01,2013-02-28 07:25:00,
2013-02-28 02:30:00,39.3,38.8,29.51,WSW,245,0.0,3.0,98,0.00,,,0.00,VWS V14.01,2013-02-28 07:30:00,
2013-02-28 02:35:00,39.4,38.9,29.51,WSW,245,1.0,2.0,98,0.00,,,0.00,VWS V14.01,2013-02-28 07:35:00,
2013-02-28 02:40:00,39.6,39.1,29.51,WSW,246,0.0,3.0,98,0.00,,,0.00,VWS V14.01,2013-02-28 07:40:00,
2013-02-28 02:45:00,39.9,39.4,29.51,WSW,246,0.0,4.0,98,0.00,,,0.00,VWS V14.01,2013-02-28 07:45:00,
2013-02-28 02:50:00,40.1,39.6,29.51,West,275,3.0,5.0,98,0.00,,,0.00,VWS V14.01,2013-02-28 07:50:00,
2013-02-28 02:55:00,40.1,39.6,29.51,West,272,3.0,5.0,98,0.00,,,0.00,VWS V14.01,2013-02-28 07:55:00,
2013-02-28 03:00:00,39.9,39.4,29.51,West,280,3.0,6.0,98,0.00,,,0.00,VWS V14.01,2013-02-28 08:00:00,
2013-02-28 03:05:00,39.7,39.2,29.51,SW,221,2.0,5.0,98,0.00,,,0.00,VWS V14.01,2013-02-28 08:05:00,
2013-02-28 03:10:00,39.3,38.8,29.51,West,275,4.0,6.0,98,0.00,,,0.00,VWS V14.01,2013-02-28 08:10:00,
2013-02-28 03:15:00,39.2,38.7,29.51,West,277,2.0,6.0,98,0.00,,,0.00,VWS V14.01,2013-02-28 08:15:00,
2013-02-28 03:20:00,39.1,38.6,29.51,West,273,2.0,6.0,98,0.00,,,0.00,VWS V14.01,2013-02-28 08:20:00,
2013-02-28 03:25:00,39.1,38.6,29.52,West,276,2.0,6.0,98,0.00,,,0.00,VWS V14.01,2013-02-28 08:25:00,
2013-02-28 03:30:00,39.1,38.6,29.52,West,273,5.0,7.0,98,0.00,,,0.00,VWS V14.01,2013-02-28 08:30:00,
2013-02-28 03:35:00,39.0,38.5,29.52,West,273,1.0,3.0,98,0.00,,,0.00,VWS V14.01,2013-02-28 08:35:00,
2013-02-28 03:40:00,38.9,38.4,29.53,West,273,1.0,5.0,98,0.00,,,0.00,VWS V14.01,2013-02-28 08:40:00,
2013-02-28 03:45:00,38.8,38.3,29.53,West,273,0.0,5.0,98,0.00,,,0.00,VWS V14.01,2013-02-28 08:45:00,
2013-02-28 03:50:00,38.7,38.2,29.53,West,273,0.0,5.0,98,0.00,,,0.00,VWS V14.01,2013-02-28 08:50:00,
2013-02-28 03:55:00,38.6,38.1,29.53,West,273,1.0,5.0,98,0.00,,,0.00,VWS V14.01,2013-02-28 08:55:00,
2013-02-28 04:00:00,38.6,38.1,29.53,West,273,0.0,5.0,98,0.00,,,0.00,VWS V14.01,2013-02-28 09:00:00,
2013-02-28 04:05:00,38.5,38.0,29.52,West,273,0.0,1.0,98,0.00,,,0.00,VWS V14.01,2013-02-28 09:05:00,
2013-02-28 04:10:00,38.5,38.0,29.53,West,273,0.0,1.0,98,0.00,,,0.00,VWS V14.01,2013-02-28 09:10:00,
2013-02-28 04:15:00,38.4,37.9,29.52,West,273,0.0,1.0,98,0.00,,,0.00,VWS V14.01,2013-02-28 09:15:00,
2013-02-28 04:20:00,38.4,37.9,29.53,West,273,2.0,2.0,98,0.00,,,0.00,VWS V14.01,2013-02-28 09:20:00,
2013-02-28 04:25:00,38.3,37.8,29.53,West,273,0.0,3.0,98,0.00,,,0.00,VWS V14.01,2013-02-28 09:25:00,
2013-02-28 04:30:00,38.2,37.7,29.53,West,273,0.0,3.0,98,0.00,,,0.00,VWS V14.01,2013-02-28 09:30:00,
2013-02-28 04:35:00,38.1,37.6,29.53,West,273,0.0,3.0,98,0.00,,,0.00,VWS V14.01,2013-02-28 09:35:00,
2013-02-28 04:40:00,38.0,37.5,29.53,West,273,0.0,3.0,98,0.00,,,0.00,VWS V14.01,2013-02-28 09:40:00,
2013-02-28 04:45:00,37.9,37.4,29.53,West,273,0.0,3.0,98,0.00,,,0.00,VWS V14.01,2013-02-28 09:45:00,
2013-02-28 04:50:00,37.9,37.4,29.53,West,273,1.0,3.0,98,0.00,,,0.00,VWS V14.01,2013-02-28 09:50:00,
2013-02-28 04:55:00,37.9,37.4,29.54,West,273,1.0,3.0,98,0.00,,,0.00,VWS V14.01,2013-02-28 09:55:00,
2013-02-28 05:00:00,37.7,37.2,29.54,West,273,0.0,4.0,98,0.00,,,0.00,VWS V14.01,2013-02-28 10:00:00,
2013-02-28 05:05:00,37.7,37.2,29.54,West,273,0.0,2.0,98,0.00,,,0.00,VWS V14.01,2013-02-28 10:05:00,
2013-02-28 05:10:00,37.6,37.1,29.54,West,273,0.0,2.0,98,0.00,,,0.00,VWS V14.01,2013-02-28 10:10:00,
2013-02-28 05:15:00,37.4,36.9,29.54,West,273,1.0,2.0,98,0.00,,,0.00,VWS V14.01,2013-02-28 10:15:00,
2013-02-28 05:20:00,37.3,36.8,29.53,West,273,0.0,2.0,98,0.00,,,0.00,VWS V14.01,2013-02-28 10:20:00,
2013-02-28 05:25:00,37.2,36.7,29.54,West,273,0.0,2.0,98,0.00,,,0.00,VWS V14.01,2013-02-28 10:25:00,
2013-02-28 05:30:00,37.0,36.5,29.55,West,273,0.0,2.0,98,0.00,,,0.00,VWS V14.01,2013-02-28 10:30:00,
2013-02-28 05:35:00,36.9,36.4,29.54,West,273,1.0,3.0,98,0.00,,,0.00,VWS V14.01,2013-02-28 10:35:00,
2013-02-28 05:40:00,36.8,36.3,29.55,West,273,3.0,3.0,98,0.00,,,0.00,VWS V14.01,2013-02-28 10:40:00,
2013-02-28 05:45:00,36.7,36.2,29.55,West,273,1.0,3.0,98,0.00,,,0.00,VWS V14.01,2013-02-28 10:45:00,
2013-02-28 05:50:00,36.8,36.3,29.55,West,271,2.0,7.0,98,0.00,,,0.00,VWS V14.01,2013-02-28 10:50:00,
2013-02-28 05:55:00,36.8,36.3,29.55,West,271,0.0,7.0,98,0.00,,,0.00,VWS V14.01,2013-02-28 10:55:00,
2013-02-28 06:00:00,36.6,36.1,29.55,West,271,1.0,7.0,98,0.00,,,0.00,VWS V14.01,2013-02-28 11:00:00,
2013-02-28 06:05:00,36.5,36.0,29.55,West,271,1.0,2.0,98,0.00,,,0.00,VWS V14.01,2013-02-28 11:05:00,
2013-02-28 06:10:00,36.4,35.9,29.55,West,271,0.0,4.0,98,0.00,,,0.00,VWS V14.01,2013-02-28 11:10:00,
2013-02-28 06:15:00,36.3,35.8,29.55,West,271,0.0,4.0,98,0.00,,,0.00,VWS V14.01,2013-02-28 11:15:00,
2013-02-28 06:20:00,36.3,35.8,29.55,West,267,1.0,5.0,98,0.00,,,0.00,VWS V14.01,2013-02-28 11:20:00,
2013-02-28 06:25:00,36.3,35.8,29.54,SW,234,2.0,5.0,98,0.00,,,0.00,VWS V14.01,2013-02-28 11:25:00,
2013-02-28 06:30:00,36.2,35.7,29.55,SW,234,0.0,5.0,98,0.00,,,0.00,VWS V14.01,2013-02-28 11:30:00,
2013-02-28 06:35:00,36.2,35.7,29.55,NW,308,2.0,3.0,98,0.00,,,0.00,VWS V14.01,2013-02-28 11:35:00,
2013-02-28 06:40:00,36.2,35.7,29.55,NW,308,0.0,3.0,98,0.00,,,0.00,VWS V14.01,2013-02-28 11:40:00,
2013-02-28 06:45:00,36.3,35.8,29.55,NW,308,1.0,3.0,98,0.00,,,0.00,VWS V14.01,2013-02-28 11:45:00,
2013-02-28 06:50:00,36.4,35.9,29.55,NW,308,0.0,3.0,98,0.00,,,0.00,VWS V14.01,2013-02-28 11:50:00,
2013-02-28 06:55:00,36.5,36.0,29.54,NW,308,0.0,3.0,98,0.00,,,0.00,VWS V14.01,2013-02-28 11:55:00,
2013-02-28 07:00:00,36.5,36.0,29.55,NW,308,0.0,3.0,98,0.00,,,0.00,VWS V14.01,2013-02-28 12:00:00,
2013-02-28 07:05:00,36.6,36.1,29.55,NW,308,0.0,1.0,98,0.00,,,0.00,VWS V14.01,2013-02-28 12:05:00,
2013-02-28 07:10:00,36.6,36.1,29.54,NW,307,3.0,3.0,98,0.00,,,0.00,VWS V14.01,2013-02-28 12:10:00,
2013-02-28 07:15:00,36.7,36.2,29.55,NW,307,1.0,4.0,98,0.00,,,0.00,VWS V14.01,2013-02-28 12:15:00,
2013-02-28 07:20:00,36.8,36.3,29.55,NW,307,0.0,4.0,98,0.00,,,0.00,VWS V14.01,2013-02-28 12:20:00,
2013-02-28 07:25:00,36.8,36.3,29.55,NW,307,0.0,4.0,98,0.00,,,0.00,VWS V14.01,2013-02-28 12:25:00,
2013-02-28 07:30:00,37.0,36.5,29.55,West,267,2.0,4.0,98,0.00,,,0.00,VWS V14.01,2013-02-28 12:30:00,
2013-02-28 07:35:00,37.1,36.6,29.55,West,267,0.0,4.0,98,0.00,,,0.00,VWS V14.01,2013-02-28 12:35:00,
2013-02-28 07:40:00,37.1,36.6,29.55,West,268,1.0,5.0,98,0.00,,,0.00,VWS V14.01,2013-02-28 12:40:00,
2013-02-28 07:45:00,37.1,36.6,29.56,West,268,2.0,5.0,98,0.00,,,0.00,VWS V14.01,2013-02-28 12:45:00,
2013-02-28 07:50:00,37.3,36.8,29.56,West,268,2.0,5.0,98,0.00,,,0.00,VWS V14.01,2013-02-28 12:50:00,
2013-02-28 07:55:00,37.4,36.9,29.57,West,268,1.0,5.0,98,0.00,,,0.00,VWS V14.01,2013-02-28 12:55:00,
2013-02-28 08:00:00,37.5,37.0,29.57,West,268,2.0,5.0,98,0.00,,,0.00,VWS V14.01,2013-02-28 13:00:00,
2013-02-28 08:05:00,37.6,37.1,29.57,West,268,0.0,2.0,98,0.00,,,0.00,VWS V14.01,2013-02-28 13:05:00,
2013-02-28 08:10:00,37.7,37.2,29.57,West,268,1.0,3.0,98,0.00,,,0.00,VWS V14.01,2013-02-28 13:10:00,
2013-02-28 08:15:00,37.8,37.0,29.57,West,268,1.0,3.0,97,0.00,,,0.00,VWS V14.01,2013-02-28 13:15:00,
2013-02-28 08:20:00,37.9,37.1,29.57,West,268,1.0,3.0,97,0.00,,,0.00,VWS V14.01,2013-02-28 13:20:00,
2013-02-28 08:25:00,37.9,37.1,29.57,NW,308,0.0,4.0,97,0.00,,,0.00,VWS V14.01,2013-02-28 13:25:00,
2013-02-28 08:30:00,37.9,37.1,29.57,NW,309,0.0,4.0,97,0.00,,,0.00,VWS V14.01,2013-02-28 13:30:00,
2013-02-28 08:35:00,37.8,37.0,29.57,WNW,293,0.0,3.0,97,0.00,,,0.00,VWS V14.01,2013-02-28 13:35:00,
2013-02-28 08:40:00,37.8,37.0,29.57,WNW,293,0.0,4.0,97,0.00,,,0.00,VWS V14.01,2013-02-28 13:40:00,
2013-02-28 08:45:00,37.9,37.1,29.57,WNW,292,0.0,5.0,97,0.00,,,0.00,VWS V14.01,2013-02-28 13:45:00,
2013-02-28 08:50:00,37.9,37.1,29.58,WNW,292,1.0,5.0,97,0.00,,,0.00,VWS V14.01,2013-02-28 13:50:00,
2013-02-28 08:55:00,38.0,37.2,29.57,WNW,292,0.0,5.0,97,0.00,,,0.00,VWS V14.01,2013-02-28 13:55:00,
2013-02-28 09:00:00,38.2,37.4,29.57,WNW,292,0.0,5.0,97,0.00,,,0.00,VWS V14.01,2013-02-28 14:00:00,
2013-02-28 09:05:00,38.3,37.5,29.58,WNW,292,0.0,1.0,97,0.00,,,0.00,VWS V14.01,2013-02-28 14:05:00,
2013-02-28 09:10:00,38.5,37.7,29.57,WNW,292,1.0,3.0,97,0.00,,,0.00,VWS V14.01,2013-02-28 14:10:00,
2013-02-28 09:15:00,38.7,37.9,29.57,WNW,292,1.0,3.0,97,0.00,,,0.00,VWS V14.01,2013-02-28 14:15:00,
2013-02-28 09:20:00,38.9,38.1,29.56,NW,323,1.0,5.0,97,0.00,,,0.00,VWS V14.01,2013-02-28 14:20:00,
2013-02-28 09:25:00,39.1,38.1,29.57,NW,309,0.0,5.0,96,0.00,,,0.00,VWS V14.01,2013-02-28 14:25:00,
2013-02-28 09:30:00,39.2,38.2,29.57,NW,309,0.0,5.0,96,0.00,,,0.00,VWS V14.01,2013-02-28 14:30:00,
2013-02-28 09:35:00,39.4,38.4,29.57,NW,309,1.0,2.0,96,0.00,,,0.00,VWS V14.01,2013-02-28 14:35:00,
2013-02-28 09:40:00,39.4,38.4,29.56,NW,309,2.0,4.0,96,0.00,,,0.00,VWS V14.01,2013-02-28 14:40:00,
2013-02-28 09:45:00,39.5,38.5,29.56,NW,307,1.0,5.0,96,0.00,,,0.00,VWS V14.01,2013-02-28 14:45:00,
2013-02-28 09:50:00,39.7,38.4,29.56,NW,307,3.0,5.0,95,0.00,,,0.00,VWS V14.01,2013-02-28 14:50:00,
2013-02-28 09:55:00,39.9,38.6,29.56,NW,306,2.0,5.0,95,0.00,,,0.00,VWS V14.01,2013-02-28 14:55:00,
2013-02-28 10:00:00,40.2,38.9,29.55,NW,306,0.0,5.0,95,0.00,,,0.00,VWS V14.01,2013-02-28 15:00:00,
2013-02-28 10:05:00,40.3,39.0,29.55,NW,306,0.0,3.0,95,0.00,,,0.00,VWS V14.01,2013-02-28 15:05:00,
2013-02-28 10:10:00,40.4,38.8,29.55,NW,306,2.0,3.0,94,0.00,,,0.00,VWS V14.01,2013-02-28 15:10:00,
2013-02-28 10:15:00,40.2,38.3,29.56,NW,306,0.0,3.0,93,0.00,,,0.00,VWS V14.01,2013-02-28 15:15:00,
2013-02-28 10:20:00,40.2,38.3,29.56,NW,306,2.0,3.0,93,0.00,,,0.00,VWS V14.01,2013-02-28 15:20:00,
2013-02-28 10:25:00,40.4,38.8,29.56,NW,306,0.0,3.0,94,0.00,,,0.00,VWS V14.01,2013-02-28 15:25:00,
2013-02-28 10:30:00,40.5,38.6,29.56,NW,306,2.0,3.0,93,0.00,,,0.00,VWS V14.01,2013-02-28 15:30:00,
2013-02-28 10:35:00,40.2,38.1,29.56,NW,306,2.0,2.0,92,0.00,,,0.00,VWS V14.01,2013-02-28 15:35:00,
2013-02-28 10:40:00,40.1,38.0,29.56,NW,306,0.0,2.0,92,0.00,,,0.00,VWS V14.01,2013-02-28 15:40:00,
2013-02-28 10:45:00,40.1,38.0,29.56,NW,306,1.0,2.0,92,0.00,,,0.00,VWS V14.01,2013-02-28 15:45:00,
2013-02-28 10:50:00,40.2,38.1,29.56,NW,306,0.0,2.0,92,0.00,,,0.00,VWS V14.01,2013-02-28 15:50:00,
2013-02-28 10:55:00,40.4,38.5,29.56,NW,306,0.0,3.0,93,0.00,,,0.00,VWS V14.01,2013-02-28 15:55:00,
2013-02-28 11:00:00,40.7,38.6,29.56,NW,306,1.0,3.0,92,0.00,,,0.00,VWS V14.01,2013-02-28 16:00:00,
2013-02-28 11:05:00,40.7,38.6,29.55,NW,306,0.0,2.0,92,0.00,,,0.00,VWS V14.01,2013-02-28 16:05:00,
2013-02-28 11:10:00,40.9,38.8,29.55,NW,306,0.0,2.0,92,0.00,,,0.00,VWS V14.01,2013-02-28 16:10:00,
2013-02-28 11:15:00,41.1,39.0,29.55,NW,306,0.0,2.0,92,0.00,,,0.00,VWS V14.01,2013-02-28 16:15:00,
2013-02-28 11:20:00,41.3,38.9,29.55,NW,306,0.0,2.0,91,0.00,,,0.00,VWS V14.01,2013-02-28 16:20:00,
2013-02-28 11:25:00,41.2,38.5,29.55,NNW,333,0.0,4.0,90,0.00,,,0.00,VWS V14.01,2013-02-28 16:25:00,
2013-02-28 11:30:00,41.4,39.0,29.55,NNW,333,0.0,4.0,91,0.00,,,0.00,VWS V14.01,2013-02-28 16:30:00,
2013-02-28 11:35:00,41.6,38.9,29.54,NNW,333,0.0,0.0,90,0.00,,,0.00,VWS V14.01,2013-02-28 16:35:00,
2013-02-28 11:40:00,41.6,38.9,29.54,NNW,333,0.0,2.0,90,0.00,,,0.00,VWS V14.01,2013-02-28 16:40:00,
2013-02-28 11:45:00,41.7,39.0,29.54,NNW,333,0.0,2.0,90,0.00,,,0.00,VWS V14.01,2013-02-28 16:45:00,
2013-02-28 11:50:00,41.8,38.8,29.54,NNW,333,1.0,2.0,89,0.00,,,0.00,VWS V14.01,2013-02-28 16:50:00,
2013-02-28 11:55:00,41.6,38.6,29.54,NNW,333,0.0,2.0,89,0.00,,,0.00,VWS V14.01,2013-02-28 16:55:00,
2013-02-28 12:00:00,41.4,38.4,29.53,NNW,333,2.0,2.0,89,0.00,,,0.00,VWS V14.01,2013-02-28 17:00:00,
2013-02-28 12:05:00,41.3,38.6,29.53,NNW,333,0.0,2.0,90,0.00,,,0.00,VWS V14.01,2013-02-28 17:05:00,
2013-02-28 12:10:00,41.3,38.6,29.53,NNW,333,1.0,3.0,90,0.00,,,0.00,VWS V14.01,2013-02-28 17:10:00,
2013-02-28 12:15:00,41.6,38.9,29.53,NNW,333,1.0,3.0,90,0.00,,,0.00,VWS V14.01,2013-02-28 17:15:00,
2013-02-28 12:20:00,41.9,39.5,29.53,NNW,333,0.0,3.0,91,0.00,,,0.00,VWS V14.01,2013-02-28 17:20:00,
2013-02-28 12:25:00,42.2,39.5,29.53,NNW,333,0.0,3.0,90,0.00,,,0.00,VWS V14.01,2013-02-28 17:25:00,
2013-02-28 12:30:00,42.3,39.3,29.52,NNW,333,1.0,3.0,89,0.00,,,0.00,VWS V14.01,2013-02-28 17:30:00,
2013-02-28 12:35:00,42.4,39.4,29.52,NNW,333,0.0,3.0,89,0.00,,,0.00,VWS V14.01,2013-02-28 17:35:00,
2013-02-28 12:40:00,42.5,39.5,29.52,NNW,333,0.0,3.0,89,0.00,,,0.00,VWS V14.01,2013-02-28 17:40:00,
2013-02-28 12:45:00,42.6,39.3,29.51,NNW,333,1.0,3.0,88,0.00,,,0.00,VWS V14.01,2013-02-28 17:45:00,
2013-02-28 12:50:00,42.6,39.3,29.51,NNW,333,3.0,3.0,88,0.00,,,0.00,VWS V14.01,2013-02-28 17:50:00,
2013-02-28 12:55:00,42.6,39.3,29.51,NNW,331,1.0,3.0,88,0.00,,,0.00,VWS V14.01,2013-02-28 17:55:00,
2013-02-28 13:00:00,42.7,39.4,29.51,NNW,331,1.0,3.0,88,0.00,,,0.00,VWS V14.01,2013-02-28 18:00:00,
2013-02-28 13:05:00,42.9,39.6,29.50,NNW,331,0.0,2.0,88,0.00,,,0.00,VWS V14.01,2013-02-28 18:05:00,
2013-02-28 13:10:00,43.1,39.8,29.50,NNW,331,1.0,3.0,88,0.00,,,0.00,VWS V14.01,2013-02-28 18:10:00,
2013-02-28 13:15:00,42.7,39.1,29.50,NNW,331,0.0,3.0,87,0.00,,,0.00,VWS V14.01,2013-02-28 18:15:00,
2013-02-28 13:20:00,42.7,39.4,29.50,NNW,331,2.0,3.0,88,0.00,,,0.00,VWS V14.01,2013-02-28 18:20:00,
2013-02-28 13:25:00,42.7,39.4,29.50,NNW,331,0.0,3.0,88,0.00,,,0.00,VWS V14.01,2013-02-28 18:25:00,
2013-02-28 13:30:00,42.6,39.3,29.50,NNW,331,1.0,3.0,88,0.00,,,0.00,VWS V14.01,2013-02-28 18:30:00,
2013-02-28 13:35:00,42.6,39.3,29.49,NNW,331,1.0,2.0,88,0.00,,,0.00,VWS V14.01,2013-02-28 18:35:00,
2013-02-28 13:40:00,43.1,40.1,29.49,NNW,331,2.0,2.0,89,0.00,,,0.00,VWS V14.01,2013-02-28 18:40:00,
2013-02-28 13:45:00,43.4,40.1,29.49,NNW,331,0.0,3.0,88,0.00,,,0.00,VWS V14.01,2013-02-28 18:45:00,
2013-02-28 13:50:00,43.8,40.2,29.48,NNW,331,0.0,3.0,87,0.00,,,0.00,VWS V14.01,2013-02-28 18:50:00,
2013-02-28 13:55:00,44.0,40.1,29.48,NNW,331,0.0,3.0,86,0.00,,,0.00,VWS V14.01,2013-02-28 18:55:00,
2013-02-28 14:00:00,44.2,40.6,29.48,NNW,331,0.0,3.0,87,0.00,,,0.00,VWS V14.01,2013-02-28 19:00:00,
2013-02-28 14:05:00,44.6,40.7,29.48,NNW,331,1.0,1.0,86,0.00,,,0.00,VWS V14.01,2013-02-28 19:05:00,
2013-02-28 14:10:00,44.7,40.5,29.48,NNW,331,2.0,2.0,85,0.00,,,0.00,VWS V14.01,2013-02-28 19:10:00,
2013-02-28 14:15:00,45.4,41.2,29.48,NNW,331,0.0,4.0,85,0.00,,,0.00,VWS V14.01,2013-02-28 19:15:00,
2013-02-28 14:20:00,46.4,41.8,29.48,NW,325,1.0,5.0,84,0.00,,,0.00,VWS V14.01,2013-02-28 19:20:00,
2013-02-28 14:25:00,47.3,42.4,29.48,NW,317,0.0,5.0,83,0.00,,,0.00,VWS V14.01,2013-02-28 19:25:00,
2013-02-28 14:30:00,48.0,42.8,29.47,WSW,258,5.0,5.0,82,0.00,,,0.00,VWS V14.01,2013-02-28 19:30:00,
2013-02-28 14:35:00,47.9,42.7,29.47,West,275,0.0,2.0,82,0.00,,,0.00,VWS V14.01,2013-02-28 19:35:00,
2013-02-28 14:40:00,47.7,41.5,29.47,WNW,285,2.0,3.0,79,0.00,,,0.00,VWS V14.01,2013-02-28 19:40:00,
2013-02-28 14:45:00,47.4,41.5,29.47,NW,320,0.0,3.0,80,0.00,,,0.00,VWS V14.01,2013-02-28 19:45:00,
2013-02-28 14:50:00,47.2,41.0,29.47,North,355,1.0,3.0,79,0.00,,,0.00,VWS V14.01,2013-02-28 19:50:00,
2013-02-28 14:55:00,46.9,41.4,29.47,ENE,63,1.0,3.0,81,0.00,,,0.00,VWS V14.01,2013-02-28 19:55:00,
2013-02-28 15:00:00,46.4,40.6,29.46,ENE,63,1.0,3.0,80,0.00,,,0.00,VWS V14.01,2013-02-28 20:00:00,
2013-02-28 15:05:00,46.1,40.6,29.46,ENE,63,0.0,1.0,81,0.00,,,0.00,VWS V14.01,2013-02-28 20:05:00,
2013-02-28 15:10:00,46.1,40.9,29.46,ENE,63,1.0,2.0,82,0.00,,,0.00,VWS V14.01,2013-02-28 20:10:00,
2013-02-28 15:15:00,46.3,40.8,29.46,ENE,61,0.0,2.0,81,0.00,,,0.00,VWS V14.01,2013-02-28 20:15:00,
2013-02-28 15:20:00,46.4,40.6,29.46,ENE,61,0.0,2.0,80,0.00,,,0.00,VWS V14.01,2013-02-28 20:20:00,
2013-02-28 15:25:00,46.4,40.6,29.46,ENE,61,0.0,2.0,80,0.00,,,0.00,VWS V14.01,2013-02-28 20:25:00,
2013-02-28 15:30:00,46.3,40.5,29.46,ENE,61,0.0,2.0,80,0.00,,,0.00,VWS V14.01,2013-02-28 20:30:00,
2013-02-28 15:35:00,46.2,40.4,29.47,ENE,61,2.0,2.0,80,0.00,,,0.00,VWS V14.01,2013-02-28 20:35:00,
2013-02-28 15:40:00,46.1,40.6,29.47,ENE,61,3.0,3.0,81,0.00,,,0.00,VWS V14.01,2013-02-28 20:40:00,
2013-02-28 15:45:00,45.7,40.5,29.46,ENE,58,2.0,4.0,82,0.00,,,0.00,VWS V14.01,2013-02-28 20:45:00,
2013-02-28 15:50:00,45.4,40.5,29.46,ENE,78,2.0,4.0,83,0.00,,,0.00,VWS V14.01,2013-02-28 20:50:00,
2013-02-28 15:55:00,45.0,40.5,29.47,NNE,24,1.0,5.0,84,0.00,,,0.00,VWS V14.01,2013-02-28 20:55:00,
2013-02-28 16:00:00,44.3,39.8,29.47,NNE,15,5.0,7.0,84,0.00,,,0.00,VWS V14.01,2013-02-28 21:00:00,
2013-02-28 16:05:00,43.8,39.9,29.47,NE,44,2.0,3.0,86,0.00,,,0.00,VWS V14.01,2013-02-28 21:05:00,
2013-02-28 16:10:00,43.4,39.5,29.47,NNE,31,4.0,6.0,86,0.00,,,0.00,VWS V14.01,2013-02-28 21:10:00,
2013-02-28 16:15:00,43.1,39.5,29.46,NNE,21,3.0,6.0,87,0.00,,,0.00,VWS V14.01,2013-02-28 21:15:00,
2013-02-28 16:20:00,42.8,39.2,29.47,ENE,62,1.0,6.0,87,0.00,,,0.00,VWS V14.01,2013-02-28 21:20:00,
2013-02-28 16:25:00,42.6,39.3,29.47,ENE,58,2.0,6.0,88,0.00,,,0.00,VWS V14.01,2013-02-28 21:25:00,
2013-02-28 16:30:00,42.4,39.1,29.47,NE,39,1.0,6.0,88,0.00,,,0.00,VWS V14.01,2013-02-28 21:30:00,
2013-02-28 16:35:00,42.4,39.4,29.47,NE,39,1.0,2.0,89,0.00,,,0.00,VWS V14.01,2013-02-28 21:35:00,
2013-02-28 16:40:00,42.3,39.3,29.47,NE,39,0.0,3.0,89,0.00,,,0.00,VWS V14.01,2013-02-28 21:40:00,
2013-02-28 16:45:00,42.2,39.2,29.47,NE,39,1.0,3.0,89,0.00,,,0.00,VWS V14.01,2013-02-28 21:45:00,
2013-02-28 16:50:00,42.0,39.0,29.47,NE,39,2.0,3.0,89,0.00,,,0.00,VWS V14.01,2013-02-28 21:50:00,
2013-02-28 16:55:00,41.8,38.8,29.47,NE,39,1.0,3.0,89,0.00,,,0.00,VWS V14.01,2013-02-28 21:55:00,
2013-02-28 17:00:00,41.6,38.9,29.47,NE,39,1.0,3.0,90,0.00,,,0.00,VWS V14.01,2013-02-28 22:00:00,
2013-02-28 17:05:00,41.4,38.7,29.47,NE,39,0.0,2.0,90,0.00,,,0.00,VWS V14.01,2013-02-28 22:05:00,
2013-02-28 17:10:00,41.3,38.9,29.47,NE,39,0.0,2.0,91,0.00,,,0.00,VWS V14.01,2013-02-28 22:10:00,
2013-02-28 17:15:00,41.3,38.9,29.47,NE,39,0.0,2.0,91,0.00,,,0.00,VWS V14.01,2013-02-28 22:15:00,
2013-02-28 17:20:00,41.2,38.8,29.47,NE,39,0.0,2.0,91,0.00,,,0.00,VWS V14.01,2013-02-28 22:20:00,
2013-02-28 17:25:00,41.1,39.0,29.47,NE,39,0.0,2.0,92,0.00,,,0.00,VWS V14.01,2013-02-28 22:25:00,
2013-02-28 17:30:00,41.1,39.0,29.47,NE,39,0.0,2.0,92,0.00,,,0.00,VWS V14.01,2013-02-28 22:30:00,
2013-02-28 17:35:00,40.9,38.8,29.47,NE,39,0.0,1.0,92,0.00,,,0.00,VWS V14.01,2013-02-28 22:35:00,
2013-02-28 17:40:00,40.8,38.7,29.47,NE,39,1.0,1.0,92,0.00,,,0.00,VWS V14.01,2013-02-28 22:40:00,
2013-02-28 17:45:00,40.6,38.5,29.47,NE,39,1.0,2.0,92,0.00,,,0.00,VWS V14.01,2013-02-28 22:45:00,
2013-02-28 17:50:00,40.4,38.3,29.47,NE,39,1.0,2.0,92,0.00,,,0.00,VWS V14.01,2013-02-28 22:50:00,
2013-02-28 17:55:00,40.2,38.1,29.47,NE,39,0.0,2.0,92,0.00,,,0.00,VWS V14.01,2013-02-28 22:55:00,
2013-02-28 18:00:00,40.2,38.1,29.47,NE,39,0.0,2.0,92,0.00,,,0.00,VWS V14.01,2013-02-28 23:00:00,
2013-02-28 18:05:00,40.1,38.0,29.47,NE,39,0.0,0.0,92,0.00,,,0.00,VWS V14.01,2013-02-28 23:05:00,
2013-02-28 18:10:00,40.0,38.1,29.47,NE,39,0.0,2.0,93,0.00,,,0.00,VWS V14.01,2013-02-28 23:10:00,
2013-02-28 18:15:00,40.0,38.1,29.47,NE,39,0.0,2.0,93,0.00,,,0.00,VWS V14.01,2013-02-28 23:15:00,
2013-02-28 18:20:00,40.0,38.1,29.47,NE,39,0.0,2.0,93,0.00,,,0.00,VWS V14.01,2013-02-28 23:20:00,
2013-02-28 18:25:00,39.9,38.0,29.47,NE,39,0.0,2.0,93,0.00,,,0.00,VWS V14.01,2013-02-28 23:25:00,
2013-02-28 18:30:00,39.9,38.0,29.47,NE,39,0.0,2.0,93,0.00,,,0.00,VWS V14.01,2013-02-28 23:30:00,
2013-02-28 18:35:00,39.8,38.0,29.46,NE,39,0.0,0.0,93,0.00,,,0.00,VWS V14.01,2013-02-28 23:35:00,
2013-02-28 18:40:00,39.7,37.8,29.46,NE,39,2.0,3.0,93,0.00,,,0.00,VWS V14.01,2013-02-28 23:40:00,
2013-02-28 18:45:00,39.5,37.7,29.46,NE,39,0.0,3.0,93,0.00,,,0.00,VWS V14.01,2013-02-28 23:45:00,
2013-02-28 18:50:00,39.4,37.5,29.46,NE,39,0.0,3.0,93,0.00,,,0.00,VWS V14.01,2013-02-28 23:50:00,
2013-02-28 18:55:00,39.3,37.5,29.46,NE,39,0.0,3.0,93,0.00,,,0.00,VWS V14.01,2013-02-28 23:55:00,
2013-02-28 19:00:00,39.2,37.3,29.46,NE,39,0.0,3.0,93,0.00,,,0.00,VWS V14.01,2013-03-01 00:00:00,
2013-02-28 19:05:00,39.2,37.3,29.46,NE,39,0.0,0.0,93,0.00,,,0.00,VWS V14.01,2013-03-01 00:05:00,
2013-02-28 19:10:00,39.1,37.5,29.46,NE,39,0.0,0.0,94,0.00,,,0.00,VWS V14.01,2013-03-01 00:10:00,
2013-02-28 19:15:00,39.1,37.5,29.46,NE,39,0.0,0.0,94,0.00,,,0.00,VWS V14.01,2013-03-01 00:15:00,
2013-02-28 19:20:00,39.1,37.5,29.46,NE,39,0.0,1.0,94,0.00,,,0.00,VWS V14.01,2013-03-01 00:20:00,
2013-02-28 19:25:00,39.1,37.5,29.46,NE,39,0.0,1.0,94,0.00,,,0.00,VWS V14.01,2013-03-01 00:25:00,
2013-02-28 19:30:00,39.1,37.5,29.46,NE,39,0.0,1.0,94,0.00,,,0.00,VWS V14.01,2013-03-01 00:30:00,
2013-02-28 19:35:00,39.1,37.5,29.46,NE,39,0.0,0.0,94,0.00,,,0.00,VWS V14.01,2013-03-01 00:35:00,
2013-02-28 19:40:00,39.1,37.5,29.46,NE,39,0.0,0.0,94,0.00,,,0.00,VWS V14.01,2013-03-01 00:40:00,
2013-02-28 19:45:00,39.1,37.5,29.46,NE,39,0.0,0.0,94,0.00,,,0.00,VWS V14.01,2013-03-01 00:45:00,
2013-02-28 19:50:00,39.0,37.4,29.46,NE,39,0.0,1.0,94,0.00,,,0.00,VWS V14.01,2013-03-01 00:50:00,
2013-02-28 19:55:00,39.0,37.4,29.46,NE,39,0.0,1.0,94,0.00,,,0.00,VWS V14.01,2013-03-01 00:55:00,
2013-02-28 20:00:00,38.9,37.3,29.46,NE,39,0.0,1.0,94,0.00,,,0.00,VWS V14.01,2013-03-01 01:00:00,
2013-02-28 20:05:00,39.0,37.7,29.46,NE,39,0.0,0.0,95,0.00,,,0.00,VWS V14.01,2013-03-01 01:05:00,
2013-02-28 20:10:00,38.9,37.6,29.46,NE,39,0.0,0.0,95,0.00,,,0.00,VWS V14.01,2013-03-01 01:10:00,
2013-02-28 20:15:00,39.0,37.7,29.46,NE,39,0.0,0.0,95,0.00,,,0.00,VWS V14.01,2013-03-01 01:15:00,
2013-02-28 20:20:00,39.0,37.7,29.46,NE,39,0.0,0.0,95,0.00,,,0.00,VWS V14.01,2013-03-01 01:20:00,
2013-02-28 20:25:00,39.1,37.8,29.46,NE,39,0.0,0.0,95,0.00,,,0.00,VWS V14.01,2013-03-01 01:25:00,
2013-02-28 20:30:00,39.1,37.8,29.46,NE,39,0.0,0.0,95,0.00,,,0.00,VWS V14.01,2013-03-01 01:30:00,
2013-02-28 20:35:00,39.0,37.7,29.46,NE,39,0.0,0.0,95,0.00,,,0.00,VWS V14.01,2013-03-01 01:35:00,
2013-02-28 20:40:00,38.9,37.6,29.46,NE,39,0.0,0.0,95,0.00,,,0.00,VWS V14.01,2013-03-01 01:40:00,
2013-02-28 20:45:00,38.9,37.6,29.46,NE,39,0.0,0.0,95,0.00,,,0.00,VWS V14.01,2013-03-01 01:45:00,
2013-02-28 20:50:00,38.9,37.6,29.46,NE,39,0.0,0.0,95,0.00,,,0.00,VWS V14.01,2013-03-01 01:50:00,
2013-02-28 20:55:00,38.9,37.6,29.46,NE,39,0.0,0.0,95,0.00,,,0.00,VWS V14.01,2013-03-01 01:55:00,
2013-02-28 21:00:00,38.8,37.5,29.46,NE,39,1.0,2.0,95,0.00,,,0.00,VWS V14.01,2013-03-01 02:00:00,
2013-02-28 21:05:00,38.8,37.5,29.46,NE,39,0.0,0.0,95,0.00,,,0.00,VWS V14.01,2013-03-01 02:05:00,
2013-02-28 21:10:00,38.7,37.4,29.45,NE,39,0.0,1.0,95,0.00,,,0.00,VWS V14.01,2013-03-01 02:10:00,
2013-02-28 21:15:00,38.6,37.3,29.45,NE,39,0.0,1.0,95,0.00,,,0.00,VWS V14.01,2013-03-01 02:15:00,
2013-02-28 21:20:00,38.6,37.3,29.45,NE,39,0.0,1.0,95,0.00,,,0.00,VWS V14.01,2013-03-01 02:20:00,
2013-02-28 21:25:00,38.5,37.2,29.45,NE,39,0.0,1.0,95,0.00,,,0.00,VWS V14.01,2013-03-01 02:25:00,
2013-02-28 21:30:00,38.4,37.1,29.45,NE,39,0.0,1.0,95,0.00,,,0.00,VWS V14.01,2013-03-01 02:30:00,
2013-02-28 21:35:00,38.2,36.9,29.46,NE,39,0.0,0.0,95,0.00,,,0.00,VWS V14.01,2013-03-01 02:35:00,
2013-02-28 21:40:00,38.0,36.7,29.46,NE,39,0.0,0.0,95,0.00,,,0.00,VWS V14.01,2013-03-01 02:40:00,
2013-02-28 21:45:00,37.9,36.6,29.46,NE,39,0.0,0.0,95,0.00,,,0.00,VWS V14.01,2013-03-01 02:45:00,
2013-02-28 21:50:00,37.8,36.5,29.46,NE,39,0.0,0.0,95,0.00,,,0.00,VWS V14.01,2013-03-01 02:50:00,
2013-02-28 21:55:00,37.7,36.7,29.45,NE,39,0.0,0.0,96,0.00,,,0.00,VWS V14.01,2013-03-01 02:55:00,
2013-02-28 22:00:00,37.8,36.8,29.45,NE,39,0.0,0.0,96,0.00,,,0.00,VWS V14.01,2013-03-01 03:00:00,
2013-02-28 22:05:00,37.7,36.7,29.45,NE,39,0.0,0.0,96,0.00,,,0.00,VWS V14.01,2013-03-01 03:05:00,
2013-02-28 22:10:00,37.7,36.7,29.45,NE,39,0.0,0.0,96,0.00,,,0.00,VWS V14.01,2013-03-01 03:10:00,
2013-02-28 22:15:00,37.6,36.6,29.45,NE,39,0.0,0.0,96,0.00,,,0.00,VWS V14.01,2013-03-01 03:15:00,
2013-02-28 22:20:00,37.5,36.5,29.45,NE,39,0.0,0.0,96,0.00,,,0.00,VWS V14.01,2013-03-01 03:20:00,
2013-02-28 22:25:00,37.5,36.5,29.45,NE,39,0.0,0.0,96,0.00,,,0.00,VWS V14.01,2013-03-01 03:25:00,
2013-02-28 22:30:00,37.4,36.4,29.44,NE,39,0.0,0.0,96,0.00,,,0.00,VWS V14.01,2013-03-01 03:30:00,
2013-02-28 22:35:00,37.4,36.4,29.45,NE,39,0.0,0.0,96,0.00,,,0.00,VWS V14.01,2013-03-01 03:35:00,
2013-02-28 22:40:00,37.3,36.3,29.44,NE,39,0.0,0.0,96,0.00,,,0.00,VWS V14.01,2013-03-01 03:40:00,
2013-02-28 22:45:00,37.3,36.3,29.44,NE,39,0.0,0.0,96,0.00,,,0.00,VWS V14.01,2013-03-01 03:45:00,
2013-02-28 22:50:00,37.1,36.1,29.44,NE,39,0.0,0.0,96,0.00,,,0.00,VWS V14.01,2013-03-01 03:50:00,
2013-02-28 22:55:00,36.9,35.9,29.44,NE,39,0.0,0.0,96,0.00,,,0.00,VWS V14.01,2013-03-01 03:55:00,
2013-02-28 23:00:00,36.9,35.9,29.44,NE,39,0.0,0.0,96,0.00,,,0.00,VWS V14.01,2013-03-01 04:00:00,
2013-02-28 23:05:00,36.7,35.7,29.44,NE,39,0.0,1.0,96,0.00,,,0.00,VWS V14.01,2013-03-01 04:05:00,
2013-02-28 23:10:00,36.6,35.6,29.44,NE,39,0.0,1.0,96,0.00,,,0.00,VWS V14.01,2013-03-01 04:10:00,
2013-02-28 23:15:00,36.6,35.6,29.44,NE,39,0.0,1.0,96,0.00,,,0.00,VWS V14.01,2013-03-01 04:15:00,
2013-02-28 23:20:00,36.6,35.6,29.44,NE,39,0.0,1.0,96,0.00,,,0.00,VWS V14.01,2013-03-01 04:20:00,
2013-02-28 23:25:00,36.6,35.6,29.44,NE,39,0.0,1.0,96,0.00,,,0.00,VWS V14.01,2013-03-01 04:25:00,
2013-02-28 23:30:00,36.6,35.6,29.44,NE,39,0.0,1.0,96,0.00,,,0.00,VWS V14.01,2013-03-01 04:30:00,
2013-02-28 23:35:00,36.6,35.6,29.45,NE,39,0.0,0.0,96,0.00,,,0.00,VWS V14.01,2013-03-01 04:35:00,
2013-02-28 23:40:00,36.7,35.9,29.45,NE,39,0.0,0.0,97,0.00,,,0.00,VWS V14.01,2013-03-01 04:40:00,
2013-02-28 23:45:00,36.6,35.8,29.44,NE,39,0.0,0.0,97,0.00,,,0.00,VWS V14.01,2013-03-01 04:45:00,
2013-02-28 23:50:00,36.6,35.8,29.44,NE,39,0.0,0.0,97,0.00,,,0.00,VWS V14.01,2013-03-01 04:50:00,
2013-02-28 23:55:00,36.7,35.9,29.44,NE,39,0.0,0.0,97,0.00,,,0.00,VWS V14.01,2013-03-01 04:55:00,